Location: Newark
(46.7636°N, 1.8358°W)
Time: 16:20:15
(UTC+00:00)

Tiros 1 - Pass Details

Date: 26 October 2019
Orbit: 630 x 664 km, 48.4° (Epoch: 18 November)

Event Time Altitude Azimuth Distance (km) Brightness Sun altitude
Exits shadow 05:59:21 - 273° (W) 2,145 9.2 -7.6°
Reaches altitude 10° 05:59:33 10° 271° (W) 2,082 9.1 -7.6°
Maximum altitude 06:03:16 23° 220° (SW) 1,417 8.6 -7.0°
Drops below altitude 10° 06:06:59 10° 169° (S) 2,073 10.1 -6.3°
Sets 06:09:43 0° 155° (SSE) 2,980 11.1 -5.9°
